Cozumel, Mexico

12:09 PM EST on September 23, 2017 (GMT -0500)
Cozumel

Weather History for MMCZ - April, 2012

Change the Weather History Date:

Saturday, April 21, 2012

  Actual Average Record
Temperature  
Mean Temperature 80 °F -  
Max Temperature 86 °F 86 °F 89 °F (2003)
Min Temperature 71 °F 74 °F 59 °F (2014)
Cooling Degree Days 14    
Growing Degree Days 30 (Base 50)    
Moisture  
Dew Point 67 °F    
Average Humidity 70    
Maximum Humidity 88    
Minimum Humidity 48    
Precipitation  
Precipitation 0.00 in - - ()
Sea Level Pressure  
Sea Level Pressure 29.79 in    
Wind  
Wind Speed 7 mph ()    
Max Wind Speed 17 mph    
Max Gust Speed 26 mph    
Visibility 7.0 miles    
Events      
Averages and records for this station are not official NWS values.
T = Trace of Precipitation, MM = Missing Value Source: Averaged Metar Reports

Daily Weather History Graph

Daily Weather History Graph

Search for Another Location

Airport or City:

Trip Planner

Search our weather history database for the weather conditions in past years. The results will help you decide how hot, cold, wet, or windy it might be!

Date:

Astronomy

Apr. 21, 2012 Rise Set
Actual Time 6:24 AM CDT 7:08 PM CDT
Civil Twilight 6:01 AM CDT 7:31 PM CDT
Nautical Twilight 5:34 AM CDT 7:58 PM CDT
Astronomical Twilight 5:07 AM CDT 8:25 PM CDT
Moon 6:26 AM CDT (4/21) 7:39 PM CDT (4/21)
Length of Visible Light 13h 29m
Length of Day
12h 44m
New Moon, 0% of the Moon is Illuminated
Apr 21
New Moon
Apr 29
First Quarter
May 5
Full
May 12
Last Quarter
May 20
New

Hourly Weather History & Observations

Time (CDT) Temp. Heat Index Dew Point Humidity Pressure Visibility Wind Dir Wind Speed Gust Speed Precip Events Conditions
12:41 AM 73.4 °F - 69.8 °F 88% 29.76 in 7.0 mi SE 5.8 mph - N/A   Clear
1:40 AM 73.4 °F - 69.8 °F 88% 29.77 in 7.0 mi SE 6.9 mph - N/A   Partly Cloudy
2:40 AM 75.2 °F - 68.0 °F 78% 29.75 in 7.0 mi SSE 5.8 mph - N/A   Partly Cloudy
3:40 AM 73.4 °F - 68.0 °F 83% 29.79 in 7.0 mi South 4.6 mph - N/A   Partly Cloudy
4:47 AM 73.4 °F - 69.8 °F 88% 29.75 in 7.0 mi South 6.9 mph - N/A   Partly Cloudy
5:42 AM 73.4 °F - 68.0 °F 83% 29.76 in 7.0 mi SSW 3.5 mph - N/A   Partly Cloudy
6:40 AM 73.4 °F - 68.0 °F 83% 29.75 in 7.0 mi South 3.5 mph - N/A   Partly Cloudy
7:40 AM 75.2 °F - 69.8 °F 83% 29.80 in 7.0 mi South 3.5 mph - N/A   Partly Cloudy
8:40 AM 77.0 °F - 69.8 °F 78% 29.80 in 7.0 mi SSW 4.6 mph 16.1 mph N/A   Mostly Cloudy
9:40 AM 77.0 °F - 71.6 °F 83% 29.84 in 7.0 mi WSW 9.2 mph - N/A   Scattered Clouds
10:40 AM 80.6 °F 84.6 °F 71.6 °F 74% 29.82 in 7.0 mi SW 13.8 mph - N/A   Mostly Cloudy
11:40 AM 80.6 °F 84.6 °F 71.6 °F 74% 29.80 in 7.0 mi SW 13.8 mph - N/A   Scattered Clouds
12:40 PM 84.2 °F 88.4 °F 69.8 °F 62% 29.76 in 7.0 mi SW 11.5 mph - N/A   Scattered Clouds
1:40 PM 84.2 °F 87.3 °F 68.0 °F 58% 29.77 in 7.0 mi SW 10.4 mph - N/A   Scattered Clouds
2:45 PM 86.0 °F 89.4 °F 68.0 °F 55% 29.74 in 7.0 mi West 9.2 mph - N/A   Scattered Clouds
3:44 PM 86.0 °F 89.4 °F 68.0 °F 55% 29.75 in 7.0 mi WSW 6.9 mph - N/A   Scattered Clouds
4:40 PM 86.0 °F 87.3 °F 64.4 °F 48% 29.70 in 7.0 mi WSW 6.9 mph - N/A   Scattered Clouds
5:47 PM 84.2 °F 86.6 °F 66.2 °F 55% 29.73 in 7.0 mi NW 13.8 mph - N/A   Scattered Clouds
6:40 PM 82.4 °F 83.9 °F 64.4 °F 54% 29.85 in 7.0 mi NNW 11.5 mph - N/A   Mostly Cloudy
7:45 PM 77.0 °F - 60.8 °F 57% 29.79 in 7.0 mi NW 17.3 mph - N/A   Scattered Clouds
8:44 PM 75.2 °F - 60.8 °F 61% 29.81 in 7.0 mi WNW 17.3 mph - N/A   Scattered Clouds
9:45 PM 75.2 °F - 60.8 °F 61% 29.86 in 7.0 mi WNW 17.3 mph - N/A   Scattered Clouds
10:41 PM 73.4 °F - 60.8 °F 65% 29.85 in 7.0 mi WNW 12.7 mph 26.5 mph N/A   Scattered Clouds
11:43 PM 71.6 °F - 60.8 °F 69% 29.86 in 7.0 mi WNW 11.5 mph 23.0 mph N/A   Scattered Clouds